www.pogodaiklimat.ru

Погода и климат >> Архив погоды >> Россия >> Крым >> Керчь


АРХИВ ПОГОДЫ в Керчи

Время (UTC), дата Ветер
(напр.,м/с)
 
Видим.   Явления Облачность Т
(С)
Тd
(С)
f
(%)
Тe
(С)
Тes
(С)
Комфортность P
(гПа)
Po
(гПа)
Тmin
(С)
Tmax
(С)
R
(мм)
R24
(мм)
S
(см)
12 17.01 СЗ 4 10 км 9/8 600 м
[Cb calv Ac und]
+2.1 -0.1 85 -3 -3 по сезону 1017.8 1011.6
15 17.01 З 2 10 км 10/10 600 м
[Cb calv]
+0.5 -0.6 92 -3 -3 по сезону 1019.3 1013.1
18 17.01 З 1 10 км 10/8 600 м
[Cb calv Ac trans]
+0.3 -1.1 90 -2 -2 по сезону 1020.3 1014.1 +2.5
21 17.01 ЮЗ 2 4000 м дымка 6/3 600 м
[Sc Ac trans]
-1.0 -1.6 96 -5 -5 по сезону 1021.0 1014.7
00 18.01 штиль 0 4000 м дымка 8/5 300 м
[Sc Ac trans]
-2.6 -3.2 96 -4 -4 по сезону 1020.8 1014.5
03 18.01 штиль 0 10 км ясно -0.8 -2.3 90 -2 -2 по сезону 1019.7 1013.4 -3.2
06 18.01 Ю 3 20 км 3/1 600 м
[Sc Ac trans]
+2.0 +0.1 87 -2 -2 по сезону 1020.0 1013.8 -3.2 1
09 18.01 Ю 7-10
{10}
20 км 6/6 600 м
[Sc]
+5.1 +2.9 86 -0 0 по сезону 1019.8 1013.7
12 18.01 Ю 9-13
{15}
20 км 6/5 600 м
[Sc Ci fib]
+7.2 +3.5 77 +2 +2 тепло 1018.6 1012.5
15 18.01 Ю 7-10
{14}
10 км 4/0
[Ac trans Ci fib]
+5.7 +2.8 82 +1 +1 по сезону 1018.5 1012.4
18 18.01 Ю 6
{11}
10 км 6/0
[Ci fib]
+5.3 +2.9 84 0 0 по сезону 1018.2 1012.1 +7.8
21 18.01 Ю 5 10 км 6/0
[Ac trans Ci fib]
+5.3 +3.4 88 +1 +1 тепло 1018.1 1012.0
00 19.01 Ю 6 10 км 8/0
[Ac trans Ci fib]
+5.7 +3.8 88 +1 +1 тепло 1017.6 1011.5
03 19.01 Ю 5 10 км 8/3 600 м
[Sc Ac trans]
+6.4 +4.3 86 +2 +2 тепло 1017.0 1010.9 +5.0
06 19.01 Ю 5 20 км 9/3 600 м
[Sc Ci fib]
+6.5 +4.7 88 +2 +2 тепло 1016.8 1010.7 +5.0
09 19.01 Ю 6
{11}
20 км 6/3 600 м
[Sc Ci fib]
+9.6 +6.4 80 +6 +7 тепло 1017.0 1011.0
12 19.01 ЮЗ 6
{10}
20 км 10/8 600 м
[Cb calv Ac und]
+9.6 +4.5 70 +6 +6 тепло 1016.9 1010.9
15 19.01 З 6
{11}
1000 м дымка 10/10 100 м
[St]
+2.7 +2.2 97 -3 -3 по сезону 1019.5 1013.3
18 19.01 СЗ 6-10
{11}
10 км 10/6 600 м
[Sc Ac und]
+1.8 +0.2 89 -4 -4 по сезону 1021.4 1015.2 +11.7
21 19.01 СЗ 5
{10}
10 км 10/5 600 м
[Sc Ac und]
+0.8 -1.8 83 -5 -5 по сезону 1023.7 1017.5
00 20.01 СЗ 4 10 км 10/5 600 м
[Sc Ac und]
-0.4 -2.8 84 -6 -6 по сезону 1025.1 1018.8
03 20.01 СВ 4 10 км 10/6 600 м
[Sc Ac und]
-0.2 -2.9 82 -6 -6 по сезону 1025.1 1018.8 -0.7
06 20.01 СВ 2 20 км 10/8 600 м
[Sc Ac trans]
-0.8 -3.9 79 -4 -4 по сезону 1025.3 1019.0 -1.0
09 20.01 СВ 3 20 км 10/6 600 м
[Sc Ci fib]
+2.5 -2.4 70 -1 -0 по сезону 1024.8 1018.6
12 20.01 В 3 20 км 6/3 600 м
[Sc Ci fib]
+3.3 -1.1 73 -0 +1 по сезону 1022.8 1016.6
15 20.01 СВ 2 10 км 9/8 600 м
[Sc Ac trans]
+1.8 -1.0 82 -1 -1 по сезону 1022.1 1015.9
18 20.01 В 3 10 км 8/8 600 м
[Sc]
+2.2 +0.6 89 -2 -2 по сезону 1021.2 1015.0 +3.7
21 20.01 В 2 4000 м дымка 10/8 300 м
[Sc Ac trans]
+1.7 +0.9 94 -2 -2 по сезону 1020.1 1013.9
00 21.01 Ю 4 10 км 8/8 600 м
[Sc]
+4.7 +3.3 91 0 0 тепло 1018.1 1012.0
03 21.01 Ю 5 10 км 10/6 600 м
[Sc Ac trans]
+6.5 +4.4 86 +2 +2 тепло 1015.9 1009.8 +1.4
06 21.01 Ю 6 10 км 10/5 600 м
[Sc Ac und]
+7.2 +4.9 85 +3 +3 тепло 1014.7 1008.7 +1.5
09 21.01 Ю 7 10 км 10/8 300 м
[Cb calv Ac und]
+9.0 +7.0 87 +5 +5 тепло 1014.0 1008.0
12 21.01 Ю 4 4000 м слаб. ливневой дождь 10/10 300 м
[Cb cap]
+7.9 +7.0 94 +4 +4 тепло 1012.2 1006.2
15 21.01 З 2 10 км {ливн. осадки} 10/10 600 м
[Cb cap]
+7.4 +4.7 83 +5 +5 тепло 1012.7 1006.7 5
18 21.01 З 8-10
{10}
4000 м дымка {ливн. осадки} 10/10 300 м
[Cb cap]
+3.0 +2.0 93 -4 -4 по сезону 1014.4 1008.3 +10.6 7
21 21.01 СЗ 7-10
{11}
10 км {туман} 10/10 300 м
[Cb calv]
+1.2 -0.5 88 -6 -6 по сезону 1017.1 1010.9
00 22.01 СЗ 9-11
{11}
10 км 10/4 600 м
[Sc Ac und]
-0.4 -1.6 92 -9 -9 прохладно 1019.1 1012.9
03 22.01 С 6
{11}
10 км 10/6 600 м
[Sc Ac und]
-1.0 -2.5 90 -8 -8 по сезону 1020.4 1014.1 -1.5 0.7
06 22.01 С 5 10 км 10/8 300 м
[Sc Ac und]
-1.7 -3.2 89 -8 -8 по сезону 1021.6 1015.3 -1.8
09 22.01 С 4 10 км 10/8 600 м
[Sc Ac und]
-1.8 -3.0 91 -8 -8 прохладно 1022.8 1016.5
12 22.01 С 4 10 км 10/8 600 м
[Sc Ac und]
-1.9 -3.4 89 -8 -8 холодно 1022.4 1016.1
15 22.01 СВ 4 10 км 10/8 600 м
[Sc Ac und]
-2.1 -4.3 85 -8 -8 прохладно 1022.2 1015.9
18 22.01 В 4 10 км 10/5 600 м
[Sc Ac und]
-0.9 -3.5 83 -7 -7 по сезону 1021.4 1015.1 -0.9
21 22.01 В 3 10 км 10/6 300 м
[Sc Ac und]
-1.1 -3.1 86 -6 -6 по сезону 1020.6 1014.3
00 23.01 В 3 10 км 8/8 300 м
[Sc]
-1.0 -2.4 90 -6 -6 по сезону 1019.0 1012.7
03 23.01 В 3 4000 м дымка 10/10 300 м
[Sc]
0.0 -0.9 94 -5 -5 по сезону 1017.0 1010.8 -1.2
06 23.01 В 5 4000 м дымка 9/9 300 м
[Sc]
+0.8 -0.6 90 -5 -5 по сезону 1016.5 1010.3 -2.1
09 23.01 В 5 10 км 10/8 600 м
[Sc Ac trans]
+2.4 +0.3 86 -3 -3 по сезону 1014.7 1008.5
12 23.01 Ю 5-10
{11}
10 км 10/10 600 м
[Cb cap]
+7.9 +5.2 83 +4 +4 тепло 1012.3 1006.3
15 23.01 ЮВ 7
{11}
10 км 10/8 600 м
[Sc Ac trans]
+7.6 +4.4 80 +3 +3 тепло 1011.3 1005.3
18 23.01 ЮВ 8
{11}
10 км {ливн. осадки} 10/8 600 м
[Cb cap Ac trans]
+7.7 +5.2 84 +3 +3 тепло 1010.7 1004.7 +8.3 0.0
21 23.01 ЮВ 7
{11}
10 км 10/8 600 м
[Sc Ac trans]
+8.3 +5.7 84 +4 +4 тепло 1010.3 1004.3
00 24.01 Ю 4 10 км слаб. ливневой дождь 10/10 600 м
[Cb cap]
+7.8 +6.0 88 +4 +4 тепло 1009.9 1003.9
03 24.01 ЮВ 4 10 км {ливн. осадки} 10/8 600 м
[Cb cap Ac trans]
+7.4 +4.9 84 +4 +4 тепло 1009.4 1003.4 +7.1 0.4
06 24.01 ЮВ 4 10 км {ливн. осадки} 8/0
[Ac trans Ci fib]
+7.6 +6.3 91 +4 +4 тепло 1009.3 1003.3 +7.1 0.4
09 24.01 Ю 6 20 км 10/0
[Ac trans Ci fib]
+10.1 +7.2 82 +7 +8 тепло 1009.1 1003.2

 

Местоположение метеостанции Керчь (Крым, Россия): широта 45.37 долгота 36.43 высота над уровнем моря 49 м.

В архиве по умолчанию представлена погода в Керчи за последнюю неделю. Архивные данные за месяц целиком и за предыдущие месяцы, начиная с января 2011 года, Вы можете получить, выбрав интересующий диапазон дат из раскрывающегося списка и нажав кнопку "Ввод!".


*Определитесь, кто Вы:
робот инопланетянин человек

Внимание! Время в таблицах - всемирное. Для получения местного времени необходимо прибавить поправку, которая равна 3 ч.

Смотрите также архив погоды в соседних городах и на ближайших метеорологических станциях:

Погода в Опасном (Крым, Россия) (16 км)
Погода в Тамани (Краснодарский край, Россия) (28 км)
Погода в Мысовом (Крым, Россия) (48 км)
Погода в Темрюке (Краснодарский край, Россия) (74 км)
Погода в Владиславовке (Крым, Россия) (85 км)
Погода в Анапе (Краснодарский край, Россия) (86 км)
Погода в Феодосии (Крым, Россия) (91 км)
Погода в Карадаге (Крым, Россия) (110 км)
Погода в Славянске-на-Кубани (Краснодарский край, Россия) (133 км)
Погода в Крымске (Краснодарский край, Россия) (133 км)

Пояснения к столбцам:

Ветер - указаны скорость ветра в м/с - средняя за 10 мин, порывы в срок и между сроками (в фигурных скобках) и направление, откуда дует ветер: С - северный, СВ - северо-восточный, В - восточный, ЮВ - юго-восточный, Ю - южный, ЮЗ - юго-западный, З - западный, СЗ - северо-западный.
Видимость - горизонтальная дальность видимости в метрах или километрах. При видимости от 1 до 10 км при отсутствии осадков обычно наблюдается дымка, при ухудшении видимости до 1 км и менее - туман. В сухую погоду видимость может ухудшаться дымом, пылью или мглою.
Явления - указаны атмосферные явления, наблюдавшиеся в срок или в последний час перед сроком; фигурными скобками обозначены явления, наблюдавшиеся между сроками (за 1-3 часа до срока); квадратными скобками обозначены град или гололедные отложения с указанием их диаметра в мм.
Облачность - указаны через наклонную черту общая и нижняя облачность в баллах и высота нижней границы облаков в метрах; квадратными скобками обозначены формы облаков: Ci - перистые, Cs - перисто-слоистые, Cc - перисто-кучевые, Ac - высококучевые, As - высокослоистые, Sc - слоисто-кучевые, Ns - слоисто-дождевые, Cu - кучевые, Cb - кучево-дождевые. Подробнее классификацию облаков см. в Атласе облаков (PDF).
T - Температура воздуха - температура, измеренная на высоте 2 м над землей.
Td - Температура точки росы - температура, при понижении до которой содержащийся в воздухе водяной пар достигнет насыщения.
f - Относительная влажность воздуха - влажноcть воздуха, измеренная на высоте 2 м над землей.
Te - Эффективная температура - температура, которую ощущает одетый по сезону человек в тени. Характеристика душности погоды. При расчете учитывается влияние влажности воздуха и скорости ветра на теплоощущения человека.
Tes - Эффективная температура на солнце - температура, которую ощущает человек, с поправкой на солнечный нагрев. Характеристика знойности погоды. Зависит от высоты солнца над горизонтом, облачности и скорости ветра. Ночью, в пасмурную погоду, а также при ветре 12 м/с и более поправка равна нулю.
P - Атмосферное давление - приведенное к уровню моря атмосферное давление.
Po - Атмосферное давление - измеренное на уровне метеостанции атмосферное давление.
Tmin - Минимальная температура - минимум температуры воздуха на высоте 2 м над землей.
Tmax - Максимальная температура - максимум температуры воздуха на высоте 2 м над землей.
R - Количество осадков - Количество выпавших осадков за период времени, мм. При наведении курсора мыши на число - период времени, за который выпало указанное количество осадков.
R24 - Количество осадков - Количество выпавших осадков за 24 часа, мм.
S - Снежный покров - Высота снежного покрова, см. При наведении курсора мыши на число - состояние снежного покрова и степень покрытия местности в баллах.